GFSMA_500_rhum_234.txt.gz
RH
9 8 9 21 34 44 42 41 41 42 38 38 40 41 41 36 42 32 24 16 9 10 8 9 8 8 7 4 4 5 4 6 7 7 9 11 12 12 12 14 13 13 11
9 8 14 33 39 45 43 40 37 33 36 40 44 47 46 42 38 31 21 12 9 10 9 9 9 8 7 4 4 4 5 6 7 7 9 11 14 13 13 14 15 14 14
10 10 18 32 38 42 37 37 30 32 31 44 44 42 43 38 30 17 17 9 9 10 10 9 9 8 7 8 4 4 4 6 6 7 9 12 14 15 15 15 16 15 15
11 12 21 36 38 39 36 27 25 30 38 48 41 36 27 21 14 15 10 8 8 10 10 10 10 9 8 9 8 4 4 5 6 7 8 11 14 16 16 17 17 16 16
12 13 21 34 45 37 26 26 24 32 26 26 20 14 10 9 10 9 8 9 8 10 11 11 11 10 9 8 9 9 7 5 5 5 7 9 11 14 17 18 19 18 18
13 14 20 42 41 29 26 21 28 28 20 13 8 7 8 7 8 9 9 9 8 9 12 12 12 12 11 9 9 9 10 10 10 9 6 7 9 11 15 17 19 21 20
15 15 32 47 36 30 24 18 19 14 15 9 8 11 12 9 9 10 10 9 7 9 12 14 13 13 12 11 10 9 9 8 10 10 10 8 6 8 11 15 18 20 21
16 19 41 47 32 30 26 21 12 9 8 8 10 13 12 10 10 10 10 10 8 8 10 13 14 14 14 14 13 11 10 10 11 11 11 10 8 7 8 12 14 16 20
20 22 43 46 30 30 27 24 20 14 9 10 11 12 11 10 10 10 10 11 9 8 9 11 13 14 15 15 16 14 11 11 12 12 13 12 10 7 7 9 11 13 16
25 26 45 43 28 27 27 24 18 14 12 13 11 10 9 9 10 10 11 11 11 10 8 9 11 12 14 15 16 17 16 13 13 13 13 14 15 9 7 8 10 11 16
26 32 48 39 26 24 25 20 12 10 11 12 14 16 17 19 20 22 22 21 19 16 13 10 9 10 12 13 14 15 17 17 15 14 13 12 12 12 8 7 8 10 12
24 36 48 38 22 18 19 14 10 18 27 28 28 27 27 28 26 26 25 24 22 20 17 15 13 11 10 11 12 13 14 15 16 16 15 14 12 11 11 9 8 8 10
28 41 49 37 18 15 17 14 14 31 34 32 30 29 28 27 26 26 24 24 24 24 24 22 19 17 15 13 12 15 12 12 14 15 16 15 14 13 11 10 9 9 12
33 46 50 40 21 12 14 17 25 39 38 36 34 32 31 30 30 29 30 30 30 29 29 33 32 28 22 18 20 18 17 13 12 13 15 16 15 14 12 11 11 12 15
38 46 51 45 26 16 14 21 35 45 43 39 39 38 36 35 37 37 37 38 36 35 36 40 37 35 31 30 33 31 27 22 16 14 13 13 14 14 14 12 11 12 16
79 50 54 49 33 18 17 19 43 51 48 47 44 43 43 42 43 45 44 44 49 47 41 41 40 42 42 39 38 39 38 29 23 19 14 12 12 13 12 14 13 13 15
91 80 59 53 50 28 14 24 30 55 58 56 56 57 50 50 50 52 54 53 56 59 49 48 47 54 53 46 44 45 44 35 28 22 18 14 12 12 12 13 14 14 16
96 90 84 71 60 53 28 21 21 34 61 70 64 83 84 65 63 62 64 67 69 66 59 57 64 65 57 57 55 50 57 44 34 26 21 18 14 13 13 13 14 15 16
96 94 96 90 84 95 90 69 28 20 24 56 82 86 92 94 72 72 75 79 82 83 74 59 63 72 69 64 59 61 61 49 44 34 29 22 16 14 15 14 15 15 16
59 77 77 86 79 84 79 67 78 93 70 44 60 64 92 97 94 91 79 88 85 95 96 70 73 68 69 67 66 60 62 65 58 46 26 22 19 17 17 16 16 16 18
43 44 65 62 57 67 70 58 50 70 88 96 93 56 92 83 80 94 96 96 95 100 96 95 96 94 91 80 75 83 81 77 44 34 27 23 22 19 21 17 18 20 22
45 82 92 71 61 55 60 77 82 62 64 97 94 91 95 94 93 95 97 97 99 97 97 95 97 97 97 98 91 72 43 47 48 38 29 27 24 28 27 22 23 29 51
100 100 92 91 50 44 46 98 99 90 95 94 94 97 96 96 97 98 98 97 98 96 98 98 99 97 96 87 67 64 62 57 54 53 54 56 50 39 34 28 27 44 60
97 94 80 98 82 58 91 97 98 98 97 97 98 96 93 96 97 98 98 97 98 97 97 96 97 97 96 97 89 80 69 64 61 62 52 43 36 33 34 33 55 64 65
49 88 79 96 98 99 100 98 97 99 98 98 96 97 97 96 96 96 98 98 97 98 98 98 97 95 96 95 98 86 79 72 71 68 64 48 48 43 56 74 70 71 75
56 47 83 97 98 98 97 98 98 95 97 97 97 98 98 98 99 97 98 98 98 99 98 97 75 79 78 86 86 79 72 64 52 46 39 39 46 75 85 81 77 81 85

GFSMA_500_rhum_237.txt.gz
RH
10 8 8 7 7 10 21 36 38 38 40 38 34 34 38 40 40 38 39 28 13 8 8 7 8 8 6 5 3 2 4 4 5 5 6 8 11 12 13 14 15 15 13
10 9 8 7 8 20 36 38 37 37 36 33 36 37 41 45 44 42 35 21 13 8 8 8 8 8 7 6 5 3 3 4 5 5 6 7 10 13 15 15 16 16 16
10 9 8 8 12 27 37 39 38 36 32 31 31 43 43 43 42 34 25 16 10 8 8 8 9 9 7 6 6 5 5 4 4 4 5 6 8 10 13 16 18 18 18
12 10 9 8 13 32 35 39 35 33 27 30 38 45 39 34 24 17 13 13 7 7 8 8 10 10 9 6 6 6 6 6 6 7 8 7 6 8 10 13 17 20 20
14 11 10 9 15 32 34 33 35 26 27 32 26 28 21 12 8 7 9 7 8 8 7 8 10 11 10 8 8 7 6 7 8 8 10 9 9 7 7 10 14 17 20
16 12 10 10 16 33 38 38 28 25 27 33 24 17 9 8 9 7 8 8 8 8 7 8 10 11 11 11 9 9 8 8 11 10 8 10 10 9 7 7 10 15 19
18 14 11 11 13 28 41 38 27 22 24 30 23 11 8 13 14 10 9 9 8 8 7 7 9 11 12 12 11 11 10 9 10 12 11 12 14 15 11 7 7 9 14
23 17 13 12 13 24 42 36 26 19 19 18 15 11 10 15 16 10 9 9 8 9 8 8 8 10 12 12 12 13 13 12 11 11 13 14 15 17 16 11 7 7 9
28 22 16 13 14 21 45 35 27 21 18 15 10 9 11 15 14 11 10 9 9 9 9 9 9 9 10 11 12 12 13 14 14 14 13 13 13 14 16 16 13 8 6
31 26 21 17 14 25 47 36 29 25 23 20 15 9 12 13 13 10 10 9 10 12 13 14 13 12 10 10 11 12 12 13 14 15 15 15 14 14 14 13 13 13 9
32 29 25 21 16 26 46 38 30 25 23 21 16 14 12 11 10 11 14 18 21 23 22 22 19 17 15 13 12 12 12 12 13 14 14 14 15 15 15 14 15 12 11
32 30 28 24 20 24 44 42 28 25 19 20 13 10 12 19 24 26 25 24 24 24 23 22 21 20 18 17 16 15 15 15 15 21 19 17 14 15 15 16 15 14 13
33 34 33 32 29 28 40 45 25 23 15 13 11 15 28 29 28 27 26 25 24 25 27 26 24 24 24 25 26 23 20 18 19 25 26 23 19 15 13 15 16 15 15
40 39 35 35 33 29 38 47 25 19 14 11 10 20 33 34 32 31 30 30 30 30 32 35 34 34 31 31 31 32 28 27 27 32 32 32 28 21 17 14 13 14 14
59 46 35 33 34 32 37 48 33 16 14 12 15 26 38 38 37 37 36 36 35 36 39 40 42 47 49 44 37 36 40 35 35 39 39 40 38 30 24 20 17 14 13
73 89 44 32 33 35 36 48 40 16 13 12 19 27 40 41 41 41 41 41 41 42 44 47 49 51 56 58 52 43 45 50 48 45 45 43 43 42 34 28 25 22 16
47 59 66 52 36 36 37 48 48 21 11 12 16 34 41 44 47 46 47 48 49 50 50 57 56 58 63 66 65 62 58 61 54 53 51 48 54 46 46 36 43 37 22
36 81 96 78 64 53 41 47 52 44 14 12 12 19 38 48 51 53 55 62 82 88 70 70 71 74 78 80 73 70 65 71 67 60 55 54 50 52 57 58 53 34 24
50 99 98 97 94 72 62 54 60 54 48 25 13 14 20 33 52 59 58 58 67 89 86 76 77 82 87 91 89 87 84 76 74 71 69 61 60 70 75 47 40 32 28
85 90 97 98 97 97 85 96 68 75 62 55 51 24 17 22 20 28 50 67 72 77 84 96 69 92 95 95 85 94 90 90 88 80 74 82 82 65 51 48 42 36 32
97 93 99 92 98 97 97 96 98 94 93 75 74 85 73 68 66 49 36 34 49 56 62 80 96 96 98 96 96 100 98 97 97 98 94 95 61 48 52 49 45 45 49
66 86 84 76 77 84 76 82 94 97 92 91 90 88 60 57 57 80 85 63 58 64 86 89 97 99 98 99 96 98 97 98 98 97 87 66 65 64 60 54 52 56 56
97 100 90 100 98 70 93 99 98 95 95 79 97 93 89 74 66 72 75 80 90 95 95 97 97 97 96 97 97 98 96 95 95 92 87 79 76 69 65 60 60 58 60
99 98 95 98 98 92 94 88 89 89 98 75 78 80 99 97 97 95 82 93 98 98 97 97 97 98 99 98 98 98 97 98 99 93 92 78 69 66 58 51 61 50 35
87 100 94 98 98 98 100 84 96 96 97 97 96 67 58 97 98 98 90 90 97 98 97 98 99 98 98 99 99 97 94 85 69 68 66 67 72 59 54 52 42 37 34
40 40 56 92 96 98 98 100 97 99 98 98 100 71 55 83 100 97 97 98 97 98 99 98 96 100 98 100 97 96 93 75 64 65 66 56 60 67 56 47 42 40 47

GFSMA_500_rhum_240.txt.gz
RH
8 8 8 8 7 6 6 7 13 19 34 36 35 35 30 29 36 39 39 40 29 10 8 7 7 8 7 5 5 4 4 4 4 4 5 6 6 6 8 12 16 17 18
10 9 9 8 7 6 7 9 19 36 37 37 33 29 28 32 39 44 43 36 15 8 7 7 7 8 8 5 5 5 5 6 6 6 7 8 8 7 6 8 12 17 18
12 10 10 8 7 7 7 18 34 38 36 35 31 27 28 40 41 40 30 17 8 7 7 7 7 9 9 8 6 6 6 6 6 8 9 8 8 8 7 6 7 11 15
17 12 10 9 8 7 9 25 39 37 35 33 28 28 33 40 32 24 13 8 8 7 6 7 7 9 9 10 8 8 7 7 9 9 7 9 11 10 9 8 6 7 10
17 12 10 9 8 8 13 29 40 37 33 31 26 30 26 25 15 8 7 6 7 7 7 7 7 8 9 10 10 10 9 8 9 11 11 12 12 14 13 14 9 7 7
18 13 10 9 9 8 13 32 37 33 35 27 27 31 26 17 8 10 12 9 7 8 8 8 7 8 8 10 10 11 11 10 10 10 11 12 13 14 15 16 16 14 11
20 15 12 10 9 9 11 28 36 36 35 26 24 30 27 13 8 16 19 13 9 8 8 8 8 8 8 9 10 10 11 11 12 12 13 13 13 13 14 15 16 16 16
24 20 14 12 10 10 10 23 36 42 33 25 21 26 22 16 9 18 20 15 9 8 8 9 9 8 8 9 9 10 11 11 12 13 14 15 15 16 15 15 15 14 14
30 24 19 15 12 11 11 14 31 41 38 24 18 18 15 13 10 14 20 16 10 9 9 9 10 12 13 11 11 10 11 11 12 13 14 16 16 15 15 14 15 15 15
33 30 24 18 14 12 12 13 20 37 39 27 18 14 14 11 9 12 16 15 10 9 11 17 20 20 21 20 18 15 14 13 13 13 14 15 20 21 18 17 17 16 16
30 31 28 24 18 14 13 13 16 34 42 31 22 18 17 16 12 12 14 11 12 17 21 23 22 22 22 21 19 18 18 17 17 16 16 17 20 25 25 24 23 20 17
34 30 30 31 25 20 15 14 14 28 46 36 27 20 18 16 14 12 11 19 23 23 21 20 21 24 26 22 22 22 22 23 25 26 26 23 22 27 30 30 31 29 25
40 39 36 36 34 28 22 18 15 21 44 44 31 23 18 14 11 11 22 26 26 26 26 26 27 30 35 39 42 46 47 40 35 28 27 29 28 33 36 35 36 35 32
46 44 44 40 39 37 30 24 19 19 32 46 36 27 20 13 10 14 29 32 30 31 31 32 32 34 38 42 45 48 52 56 58 46 37 35 37 43 39 38 35 35 35
62 46 40 38 39 38 36 32 27 23 26 40 45 27 21 14 10 14 28 35 35 36 37 38 38 39 41 44 47 50 54 59 63 63 63 56 47 48 44 43 42 38 40
79 88 80 51 36 34 31 30 34 32 31 32 46 39 18 15 12 14 20 35 38 39 41 42 43 44 46 49 53 56 59 64 72 76 74 70 62 58 57 49 45 41 61
96 96 94 93 55 44 41 31 29 30 35 35 42 47 24 14 12 15 24 31 39 41 43 45 46 53 72 70 68 70 69 74 80 84 83 80 79 67 63 61 55 62 64
95 95 97 94 90 89 78 56 67 48 31 37 41 49 44 19 12 12 24 33 39 42 45 49 52 56 62 71 81 86 84 92 89 96 93 95 91 93 80 80 73 68 61
97 100 80 52 66 40 53 80 83 56 45 35 35 47 52 43 19 11 12 18 32 41 45 49 54 56 56 59 68 75 86 93 87 97 97 95 99 98 98 89 86 87 58
97 69 84 60 38 31 90 94 94 92 73 72 52 46 51 53 51 34 21 13 13 16 25 33 34 40 49 47 52 64 69 76 94 96 96 94 94 100 97 95 94 75 63
91 95 76 49 40 46 96 95 97 97 94 94 90 82 72 58 57 55 55 58 56 46 49 42 51 44 28 32 41 53 70 90 98 97 99 95 99 95 99 100 87 72 70
51 93 24 14 46 46 90 98 97 96 97 97 98 91 94 98 73 75 87 84 96 80 83 81 73 91 92 82 64 83 97 97 99 100 86 85 96 96 99 95 90 77 75
76 60 44 33 92 100 91 82 96 98 97 96 98 96 97 97 97 97 98 95 94 88 76 75 77 96 96 96 93 97 97 96 96 90 98 98 96 96 97 92 81 74 58
95 75 47 84 99 98 97 99 98 97 97 95 96 98 92 83 98 97 96 93 91 100 96 91 96 97 98 97 96 97 97 100 91 100 86 90 88 93 90 78 64 54 57
82 84 62 90 100 98 98 100 98 84 93 100 95 100 97 98 96 99 91 96 95 90 91 96 97 97 97 99 98 98 96 92 91 93 87 94 99 94 76 70 68 62 62
57 59 95 99 97 98 99 99 100 100 100 97 96 100 98 99 98 97 98 99 99 91 100 82 77 95 99 98 98 98 98 96 90 94 99 89 88 89 88 82 77 78 84

GFSMA_500_rhum_246.txt.gz
RH
15 12 10 7 6 7 6 6 5 5 5 5 7 20 26 33 34 28 26 30 33 38 20 8 7 6 7 7 7 7 7 8 7 8 9 10 13 14 15 16 16 14 13
17 12 10 7 7 7 7 6 6 5 5 6 8 22 31 33 30 27 27 33 37 29 11 7 7 6 6 7 8 8 8 8 8 9 10 11 13 14 15 16 14 16 17
20 13 10 8 7 7 7 7 6 6 6 6 12 29 31 32 28 27 32 33 21 12 7 7 7 6 6 7 8 9 9 10 9 10 10 11 13 15 16 17 17 16 17
23 14 10 9 7 7 8 8 7 6 6 7 15 32 30 32 28 28 30 15 8 7 7 7 7 6 7 7 8 8 9 10 10 11 12 12 13 15 16 17 19 19 18
28 17 12 10 8 8 8 8 7 6 6 7 17 31 31 32 28 26 18 9 7 7 6 6 7 7 7 7 7 8 9 10 10 11 11 12 13 15 17 18 19 20 21
32 20 13 10 9 8 8 8 8 7 7 8 21 33 32 30 27 25 16 8 14 16 12 8 8 8 8 7 8 8 9 10 11 12 11 12 13 14 15 16 17 20 23
35 25 14 11 9 9 9 9 8 7 7 8 25 34 32 30 27 28 22 9 16 19 17 12 8 8 8 8 9 9 10 12 16 15 15 14 14 15 16 17 18 20 25
37 27 15 12 10 9 9 9 9 8 8 8 24 36 33 31 26 30 26 10 17 20 20 14 9 8 9 9 12 16 18 19 19 18 17 17 17 19 20 21 22 23 24
37 28 18 13 11 10 10 11 10 9 8 8 18 34 33 32 26 27 28 16 11 19 20 20 13 9 9 11 19 21 19 19 19 18 19 22 30 32 32 32 33 33 35
39 30 20 15 13 12 12 11 11 10 9 9 14 34 28 33 30 23 23 19 12 14 20 20 16 9 10 18 20 20 20 25 22 38 50 52 52 50 51 54 57 59 59
44 32 23 17 14 14 13 12 11 10 10 9 10 22 28 37 35 23 19 15 14 11 14 18 17 12 16 21 20 20 35 39 44 47 50 52 53 55 57 56 64 63 71
49 37 28 19 15 14 14 13 12 10 10 9 10 14 21 35 38 29 18 12 14 12 13 15 15 15 20 20 20 25 30 36 40 42 45 48 51 54 53 52 55 62 74
55 55 37 24 17 15 14 13 12 12 10 10 10 10 14 24 36 37 27 16 15 15 14 14 13 18 23 22 26 28 31 34 38 42 45 48 52 64 68 70 72 84 82
65 59 64 86 53 29 16 18 15 31 12 12 11 11 11 13 19 36 40 28 20 15 13 12 12 20 28 29 30 32 35 39 42 44 46 49 60 62 63 66 67 69 69
67 68 63 67 67 40 30 40 26 36 22 22 12 12 12 12 13 15 36 42 32 23 17 14 11 14 27 32 34 36 38 40 41 43 46 50 55 58 62 62 62 63 67
78 70 75 78 80 67 47 39 30 24 19 49 20 16 16 15 14 14 15 32 44 39 27 19 14 11 14 23 32 35 37 40 42 45 48 50 53 56 56 55 48 54 62
96 96 96 96 95 95 87 76 68 73 66 34 29 29 27 26 24 21 18 17 25 43 45 30 21 15 12 12 17 26 33 38 41 43 45 47 50 48 39 37 44 44 45
96 95 95 95 90 88 90 96 88 70 48 41 43 40 38 44 38 32 28 25 22 21 30 46 38 25 15 14 14 17 23 28 34 41 44 40 35 30 34 39 54 58 86
96 96 95 93 97 98 97 90 72 66 60 55 50 46 45 44 41 48 42 31 31 28 26 27 36 45 29 17 13 12 13 15 17 20 15 17 34 59 87 75 78 84 80
98 98 98 96 84 98 96 98 97 96 96 89 73 64 54 42 40 55 45 32 31 30 32 35 37 40 51 50 37 27 20 18 15 16 22 47 83 91 81 76 79 93 86
94 95 98 98 97 97 99 98 97 93 91 88 89 77 68 56 48 56 57 56 53 39 43 48 58 55 58 59 65 63 60 62 56 67 80 90 84 92 83 86 98 95 82
98 92 98 96 98 98 96 97 95 93 96 97 96 95 100 91 73 75 75 64 66 78 88 88 82 71 85 91 92 90 81 79 90 96 93 90 95 100 98 96 86 83 86
56 92 98 98 98 97 98 97 97 98 97 99 99 96 100 97 99 87 70 99 98 98 92 83 86 100 97 96 93 87 95 96 98 98 94 97 100 97 96 95 88 78 80
23 36 48 88 96 97 97 97 97 95 98 98 99 97 96 100 85 65 61 97 92 98 97 94 98 99 100 98 97 94 90 99 98 98 98 97 96 99 92 96 96 89 84
22 22 27 39 41 55 87 94 97 95 97 97 99 96 97 90 96 86 66 99 99 91 96 96 97 97 98 98 99 98 100 97 99 99 98 91 97 90 89 91 89 93 94
38 29 24 24 26 31 32 42 73 88 94 96 95 98 98 97 82 63 67 95 86 91 97 98 97 96 98 98 99 100 100 100 97 86 96 92 96 92 89 98 93 99 100